Weather History for KHOT - November, 2012

Change the Weather History Date:

Saturday, November 3, 2012

  Actual Average Record
Temperature  
Mean Temperature 70 °F -  
Max Temperature 82 °F 66 °F 83 °F (1987)
Min Temperature 59 °F 44 °F 21 °F (1951)
Cooling Degree Days 6    
Growing Degree Days 20 (Base 50)    
Moisture  
Dew Point 54 °F    
Average Humidity 61    
Maximum Humidity 90    
Minimum Humidity 40    
Precipitation  
Precipitation 0.02 in - - ()
Sea Level Pressure  
Sea Level Pressure 30.02 in    
Wind  
Wind Speed 4 mph (WNW)    
Max Wind Speed 14 mph    
Max Gust Speed 22 mph    
Visibility 10 miles    
Events Rain , Thunderstorm    
Averages and records for this station are not official NWS values.
T = Trace of Precipitation, MM = Missing Value Source: NWS Daily Summary

Daily Weather History Graph

Daily Weather History Graph

Search for Another Location

Airport or City:

Trip Planner

Search our weather history database for the weather conditions in past years. The results will help you decide how hot, cold, wet, or windy it might be!

Date:

Astronomy

Nov. 03, 2012 Rise Set
Actual Time 7:34 AM CDT 6:16 PM CDT
Civil Twilight 7:08 AM CDT 6:42 PM CDT
Nautical Twilight 6:38 AM CDT 7:12 PM CDT
Astronomical Twilight 6:09 AM CDT 7:41 PM CDT
Moon 10:02 PM CDT (11/3) 11:35 AM CDT (11/3)
Length of Visible Light 11h 33m
Length of Day
10h 41m
Waning Gibbous, 80% of the Moon is Illuminated
Nov 3
Waning Gibbous
Nov 6
Last Quarter
Nov 13
New
Nov 20
First Quarter
Nov 28
Full

Hourly Weather History & Observations

Time (CDT) Temp. Heat Index Dew Point Humidity Pressure Visibility Wind Dir Wind Speed Gust Speed Precip Events Conditions
12:53 AM 60.1 °F - 55.0 °F 83% 29.97 in 10.0 mi Calm Calm - N/A   Clear
1:53 AM 63.0 °F - 55.9 °F 78% 29.96 in 10.0 mi NW 3.5 mph - N/A   Clear
2:53 AM 64.9 °F - 55.9 °F 73% 29.97 in 10.0 mi WNW 3.5 mph - N/A   Clear
3:53 AM 61.0 °F - 55.9 °F 83% 29.97 in 10.0 mi Calm Calm - N/A   Clear
4:53 AM 62.1 °F - 55.9 °F 80% 29.98 in 10.0 mi Calm Calm - N/A   Clear
5:53 AM 62.1 °F - 57.0 °F 84% 30.00 in 10.0 mi Variable 3.5 mph - N/A   Clear
6:53 AM 63.0 °F - 57.0 °F 81% 30.01 in 10.0 mi Calm Calm - N/A   Clear
7:53 AM 59.0 °F - 55.9 °F 90% 30.04 in 10.0 mi Calm Calm - N/A   Clear
8:53 AM 64.9 °F - 59.0 °F 81% 30.05 in 10.0 mi Calm Calm - N/A   Clear
9:53 AM 70.0 °F - 61.0 °F 73% 30.05 in 10.0 mi WSW 9.2 mph - N/A   Clear
10:53 AM 72.0 °F - 62.1 °F 71% 30.05 in 10.0 mi WSW 11.5 mph 18.4 mph N/A   Clear
11:53 AM 77.0 °F - 62.1 °F 60% 30.04 in 10.0 mi WSW 9.2 mph - N/A   Clear
12:53 PM 79.0 °F - 62.1 °F 56% 30.01 in 10.0 mi WSW 9.2 mph - N/A   Clear
1:53 PM 80.1 °F 81.1 °F 61.0 °F 52% 29.98 in 10.0 mi SW 12.7 mph 21.9 mph N/A   Clear
2:53 PM 82.0 °F 82.7 °F 61.0 °F 49% 29.96 in 10.0 mi SW 8.1 mph 19.6 mph N/A   Partly Cloudy
3:53 PM 77.0 °F - 64.0 °F 64% 29.96 in 7.0 mi WSW 8.1 mph - 0.02 in Rain Light Rain
4:53 PM 78.1 °F - 60.1 °F 54% 29.96 in 10.0 mi WNW 4.6 mph - 0.00 in   Mostly Cloudy
5:53 PM 75.0 °F - 55.9 °F 51% 29.97 in 10.0 mi NW 5.8 mph - N/A   Mostly Cloudy
6:02 PM 75.2 °F - 55.4 °F 50% 29.99 in 10.0 mi NW 5.8 mph - N/A Thunderstorm Mostly Cloudy
6:16 PM 73.4 °F - 55.4 °F 53% 29.99 in 10.0 mi Variable 4.6 mph - N/A   Mostly Cloudy
6:53 PM 72.0 °F - 50.0 °F 46% 30.00 in 10.0 mi NNW 3.5 mph - N/A   Mostly Cloudy
7:53 PM 70.0 °F - 48.9 °F 47% 30.02 in 10.0 mi WNW 3.5 mph - N/A   Mostly Cloudy
8:53 PM 69.1 °F - 46.9 °F 45% 30.04 in 10.0 mi Variable 4.6 mph - N/A   Mostly Cloudy
9:53 PM 68.0 °F - 45.0 °F 43% 30.06 in 10.0 mi NNE 3.5 mph - N/A   Overcast
10:53 PM 66.9 °F - 42.1 °F 40% 30.09 in 10.0 mi NNE 6.9 mph - N/A   Overcast
11:20 PM 64.4 °F - 42.8 °F 45% 30.11 in 10.0 mi ENE 11.5 mph - N/A Thunderstorm Overcast
11:30 PM 64.4 °F - 42.8 °F 45% 30.11 in 10.0 mi ENE 13.8 mph - N/A Thunderstorm Overcast
11:51 PM 62.6 °F - 42.8 °F 48% 30.13 in 10.0 mi ENE 6.9 mph - N/A   Overcast
11:53 PM 63.0 °F - 42.1 °F 46% 30.12 in 10.0 mi East 6.9 mph - N/A   Overcast